Location: Lake Arresoe
(56.0000°N, 12.5000°E)
Time: 05:18:35
(UTC+01:00)

Cosmos 2058 - Pass Details

Date: 14 October 2019
Orbit: 563 x 583 km, 82.5° (Epoch: 13 November)

Event Time Altitude Azimuth Distance (km) Brightness Sun altitude
Rises 22:18:57 0° 336° (NNW) 2,822 7.3 -33.2°
Reaches altitude 10° 22:21:50 10° 315° (NW) 1,917 6.4 -33.5°
Maximum altitude 22:24:25 16° 277° (W) 1,558 5.6 -33.8°
Enters shadow 22:24:25 16° 277° (W) 1,558 5.6 -33.8°
